Weather History for Luverne, MN

Change the Weather History Date:

Tuesday, October 15, 2013

  Actual Average (KFSD) Record (KFSD)
Temperature  
Mean Temperature 48 °F 48 °F  
Max Temperature 53 °F 60 °F 92 °F (1958)
Min Temperature 42 °F 36 °F 23 °F (1952)
Degree Days  
Heating Degree Days 18 17  
Month to date heating degree days 210  
Since 1 July heating degree days 414  
Cooling Degree Days 0 0  
Month to date cooling degree days 0  
Year to date cooling degree days 685  
Moisture  
Dew Point 44 °F    
Average Humidity 88    
Maximum Humidity 94    
Minimum Humidity 81    
Precipitation  
Precipitation 0.01 in 0.07 in 1.49 in (2007)
Month to date precipitation 1.24  
Year to date precipitation 23.40  
Snow  
Snow 0.00 in 0.10 in T in (2001)
Month to date snowfall 0.3  
Since 1 July snowfall 0.3  
Since 1 September snowfall 0.3  
Snow Depth -    
Sea Level Pressure  
Sea Level Pressure 29.78 in    
Wind  
Wind Speed 13 mph (WNW)    
Max Wind Speed 21 mph    
Max Gust Speed 29 mph    
Visibility 8 miles    
Events Rain    
T = Trace of Precipitation, MM = Missing Value Source: NWS Daily Summary

Daily Weather History Graph

Daily Weather History Graph

Search for Another Location

Airport:

Trip Planner

Search our weather history database for the weather conditions in past years. The results will help you decide how hot, cold, wet, or windy it might be!

Date:

Astronomy

Oct. 15, 2013 Rise Set
Actual Time 7:39 AM CDT 6:41 PM CDT
Civil Twilight 7:10 AM CDT 7:09 PM CDT
Nautical Twilight 6:37 AM CDT 7:43 PM CDT
Astronomical Twilight 6:03 AM CDT 8:16 PM CDT
Moon 4:51 PM CDT (10/15) 3:57 AM CDT (10/15)
Length of Visible Light 11h 59m
Length of Day
11h 01m
Waxing Gibbous, 88% of the Moon is Illuminated
Oct 15
Waxing Gibbous
Oct 18
Full
Oct 26
Last Quarter
Nov 3
New
Nov 9
First Quarter

Hourly Weather History & Observations

Time (CDT) Temp. Windchill Dew Point Humidity Pressure Visibility Wind Dir Wind Speed Gust Speed Precip Events Conditions
12:13 AM 51.8 °F - 48.2 °F 88% 29.69 in 7.0 mi SE 12.7 mph 17.3 mph N/A   Overcast
12:33 AM 51.8 °F - 50.0 °F 94% 29.68 in 10.0 mi SE 11.5 mph 17.3 mph N/A   Light Drizzle
12:53 AM 53.6 °F - 50.0 °F 88% 29.66 in 7.0 mi SSE 11.5 mph - 0.01 in Rain Rain
1:13 AM 53.6 °F - 50.0 °F 88% 29.65 in 10.0 mi SSE 12.7 mph 16.1 mph N/A   Overcast
1:33 AM 53.6 °F - 50.0 °F 88% 29.65 in 10.0 mi SSE 13.8 mph 19.6 mph N/A   Overcast
1:53 AM 53.6 °F - 50.0 °F 88% 29.64 in 10.0 mi SSE 11.5 mph - N/A Rain Light Rain
2:13 AM 53.6 °F - 51.8 °F 94% 29.63 in 7.0 mi SSE 9.2 mph 17.3 mph N/A Rain Rain
2:33 AM 53.6 °F - 51.8 °F 94% 29.63 in 4.0 mi SSE 9.2 mph 16.1 mph N/A Rain Heavy Rain
2:53 AM 53.6 °F - 51.8 °F 94% 29.63 in 3.0 mi South 9.2 mph - N/A Rain Heavy Rain
3:12 AM 53.6 °F - 51.8 °F 94% 29.63 in 3.0 mi SSW 6.9 mph - N/A Rain Heavy Rain
3:33 AM 53.6 °F - 51.8 °F 94% 29.63 in 4.0 mi West 12.7 mph 19.6 mph N/A   Overcast
3:52 AM 53.6 °F - 50.0 °F 88% 29.63 in 4.0 mi West 16.1 mph 21.9 mph N/A   Overcast
4:13 AM 51.8 °F - 50.0 °F 94% 29.63 in 7.0 mi West 15.0 mph - N/A   Overcast
4:32 AM 51.8 °F - 48.2 °F 88% 29.64 in 10.0 mi West 16.1 mph 23.0 mph N/A   Overcast
4:53 AM 50.0 °F - 46.4 °F 87% 29.65 in 10.0 mi West 13.8 mph 18.4 mph N/A   Overcast
5:13 AM 50.0 °F - 46.4 °F 87% 29.65 in 10.0 mi WSW 13.8 mph 17.3 mph N/A   Overcast
5:32 AM 50.0 °F - 46.4 °F 87% 29.66 in 10.0 mi West 10.4 mph - N/A   Overcast
5:53 AM 50.0 °F - 46.4 °F 87% 29.67 in 7.0 mi West 13.8 mph 18.4 mph N/A   Overcast
6:13 AM 50.0 °F - 46.4 °F 87% 29.67 in 5.0 mi WSW 13.8 mph - N/A Rain Rain
6:32 AM 48.2 °F - 44.6 °F 87% 29.67 in 5.0 mi WSW 12.7 mph - N/A   Drizzle
6:53 AM 48.2 °F - 44.6 °F 87% 29.67 in 10.0 mi WSW 13.8 mph 17.3 mph N/A Rain Rain
7:13 AM 46.4 °F 40.4 °F 44.6 °F 93% 29.68 in 10.0 mi WSW 13.8 mph - N/A   Overcast
7:32 AM 46.4 °F 41.1 °F 44.6 °F 93% 29.68 in 10.0 mi WSW 11.5 mph - N/A   Overcast
7:53 AM 46.4 °F 41.5 °F 44.6 °F 93% 29.68 in 10.0 mi WSW 10.4 mph - N/A   Overcast
8:13 AM 46.4 °F 41.5 °F 44.6 °F 93% 29.68 in 4.0 mi SW 10.4 mph - N/A   Drizzle
8:33 AM 46.4 °F 41.5 °F 44.6 °F 93% 29.68 in 3.0 mi WSW 10.4 mph - N/A Rain Light Rain
8:53 AM 48.2 °F - 44.6 °F 87% 29.69 in 10.0 mi West 13.8 mph 19.6 mph N/A   Light Drizzle
9:13 AM 48.2 °F - 46.4 °F 93% 29.69 in 4.0 mi West 17.3 mph - N/A   Overcast
9:33 AM 48.2 °F - 46.4 °F 93% 29.69 in 2.0 mi West 17.3 mph 21.9 mph N/A   Overcast
9:53 AM 48.2 °F - 46.4 °F 93% 29.70 in 2.0 mi West 16.1 mph 21.9 mph N/A   Overcast
10:12 AM 50.0 °F - 46.4 °F 87% 29.71 in 2.0 mi West 15.0 mph - N/A   Overcast
10:33 AM 50.0 °F - 46.4 °F 87% 29.71 in 1.5 mi West 12.7 mph 17.3 mph N/A   Overcast
10:53 AM 50.0 °F - 46.4 °F 87% 29.72 in 1.8 mi WNW 12.7 mph - N/A   Drizzle
11:12 AM 50.0 °F - 46.4 °F 87% 29.73 in 2.5 mi NNW 15.0 mph 20.7 mph N/A   Drizzle
11:33 AM 50.0 °F - 46.4 °F 87% 29.74 in 3.0 mi NW 11.5 mph 24.2 mph N/A   Drizzle
11:53 AM 50.0 °F - 46.4 °F 87% 29.75 in 4.0 mi NNW 17.3 mph 26.5 mph N/A   Overcast
12:12 PM 50.0 °F - 44.6 °F 82% 29.76 in 5.0 mi NNW 15.0 mph 23.0 mph N/A Rain Light Rain
12:33 PM 48.2 °F - 44.6 °F 87% 29.78 in 7.0 mi NNW 16.1 mph 25.3 mph N/A   Overcast
12:53 PM 48.2 °F - 44.6 °F 87% 29.78 in 10.0 mi NNW 20.7 mph 27.6 mph N/A   Overcast
1:12 PM 48.2 °F - 44.6 °F 87% 29.79 in 10.0 mi NNW 20.7 mph 26.5 mph N/A   Overcast
1:33 PM 48.2 °F - 42.8 °F 82% 29.79 in 10.0 mi NNW 19.6 mph 26.5 mph N/A   Overcast
1:53 PM 46.4 °F 39.0 °F 42.8 °F 87% 29.80 in 10.0 mi NNW 19.6 mph 27.6 mph N/A   Overcast
2:12 PM 46.4 °F 39.2 °F 42.8 °F 87% 29.81 in 10.0 mi NNW 18.4 mph 28.8 mph N/A   Overcast
2:33 PM 46.4 °F 40.1 °F 42.8 °F 87% 29.83 in 10.0 mi NNW 15.0 mph 23.0 mph N/A   Overcast
2:53 PM 46.4 °F 39.8 °F 42.8 °F 87% 29.83 in 10.0 mi NNW 16.1 mph 26.5 mph N/A   Overcast
3:13 PM 46.4 °F 39.5 °F 42.8 °F 87% 29.84 in 10.0 mi NNW 17.3 mph 24.2 mph N/A   Overcast
3:33 PM 46.4 °F 39.8 °F 42.8 °F 87% 29.85 in 5.0 mi NNW 16.1 mph 21.9 mph N/A   Overcast
3:53 PM 46.4 °F 39.8 °F 42.8 °F 87% 29.85 in 10.0 mi NNW 16.1 mph 25.3 mph N/A Rain Light Rain
4:13 PM 46.4 °F 39.8 °F 42.8 °F 87% 29.86 in 5.0 mi NNW 16.1 mph 23.0 mph N/A   Overcast
4:32 PM 46.4 °F 39.5 °F 42.8 °F 87% 29.86 in 10.0 mi NNW 17.3 mph 25.3 mph N/A   Overcast
4:53 PM 46.4 °F 39.0 °F 41.0 °F 81% 29.87 in 7.0 mi NNW 19.6 mph 26.5 mph N/A   Overcast
5:13 PM 44.6 °F 37.8 °F 41.0 °F 87% 29.88 in 10.0 mi NNW 15.0 mph 23.0 mph N/A   Overcast
5:33 PM 44.6 °F 36.9 °F 41.0 °F 87% 29.88 in 7.0 mi NNW 18.4 mph 25.3 mph N/A   Overcast
5:53 PM 44.6 °F 37.4 °F 41.0 °F 87% 29.90 in 7.0 mi NNW 16.1 mph 25.3 mph N/A   Light Drizzle
6:13 PM 44.6 °F 37.2 °F 41.0 °F 87% 29.90 in 10.0 mi NNW 17.3 mph 24.2 mph N/A   Overcast
6:32 PM 44.6 °F 37.2 °F 41.0 °F 87% 29.91 in 10.0 mi NNW 17.3 mph 21.9 mph N/A   Overcast
6:53 PM 44.6 °F 37.2 °F 41.0 °F 87% 29.92 in 10.0 mi NNW 17.3 mph 20.7 mph N/A   Overcast
7:13 PM 44.6 °F 38.8 °F 39.2 °F 81% 29.93 in 10.0 mi NNW 11.5 mph - N/A   Overcast
7:33 PM 44.6 °F 38.4 °F 39.2 °F 81% 29.94 in 10.0 mi NW 12.7 mph 21.9 mph N/A   Overcast
7:53 PM 44.6 °F 37.8 °F 39.2 °F 81% 29.95 in 10.0 mi NW 15.0 mph 19.6 mph N/A   Overcast
8:13 PM 44.6 °F 38.1 °F 39.2 °F 81% 29.96 in 10.0 mi NNW 13.8 mph 20.7 mph N/A   Overcast
8:33 PM 42.8 °F 36.2 °F 39.2 °F 87% 29.96 in 10.0 mi NNW 12.7 mph 19.6 mph N/A   Overcast
8:53 PM 42.8 °F 36.2 °F 39.2 °F 87% 29.97 in 10.0 mi NW 12.7 mph 19.6 mph N/A   Overcast
9:13 PM 42.8 °F 35.8 °F 39.2 °F 87% 29.97 in 10.0 mi NW 13.8 mph 18.4 mph N/A   Overcast
9:33 PM 42.8 °F 36.6 °F 39.2 °F 87% 29.98 in 10.0 mi NNW 11.5 mph 18.4 mph N/A   Overcast
9:52 PM 42.8 °F 36.6 °F 39.2 °F 87% 29.98 in 10.0 mi NNW 11.5 mph 19.6 mph N/A   Overcast
10:13 PM 44.6 °F 38.1 °F 39.2 °F 81% 29.98 in 10.0 mi NW 13.8 mph 19.6 mph N/A   Overcast
10:33 PM 42.8 °F 36.6 °F 39.2 °F 87% 29.99 in 10.0 mi NW 11.5 mph 19.6 mph N/A   Overcast
10:53 PM 42.8 °F 36.6 °F 39.2 °F 87% 29.98 in 5.0 mi NW 11.5 mph - N/A   Overcast
11:12 PM 42.8 °F 36.2 °F 41.0 °F 93% 29.98 in 7.0 mi NNW 12.7 mph 17.3 mph N/A   Overcast
11:33 PM 42.8 °F 36.6 °F 41.0 °F 93% 29.98 in 7.0 mi NNW 11.5 mph - N/A   Light Drizzle
11:53 PM 42.8 °F 35.4 °F 41.0 °F 93% 29.98 in 7.0 mi NNW 15.0 mph 19.6 mph N/A   Overcast